Flag for U.S.A. Weather past 2 weeks in Concord, California, U.S.A.

Now
70 °F

Sunny.


Feels Like: 77 °F
Forecast: 57 / 79 °F
Wind: 16 mph from South

Location: Buchanan Field

Current Time: Sep 3, 2015 at 7:16:35 PM

Latest Report: Sep 3, 2015 at 6:53 PM


Visibility: 10 mi

Pressure: 29.77 "Hg

Humidity: 44%

Dew point: 47 °F

Location of ConcordLocation

Historic Weather in Concord — Graph

°F

Concord temperature yesterday

Maximum temperature yesterday: 79 °F (at 1:53 PM)
Minimum temperature yesterday: 62 °F (at 5:53 AM)
Average temperature yesterday: 68 °F

Past Weeks' High & Low Weather Summary

 TemperatureHumidityPressure
High99 °F (Aug 28, 1:53 PM)87% (Aug 29, 10:53 AM)30.00 "Hg (Aug 29, 10:53 AM)
Low58 °F (Aug 25, 4:53 AM)14% (Aug 26, 3:53 PM)29.77 "Hg (Sep 1, 4:53 PM)
Average72 °F56%29.88 "Hg
* Reported Aug 19 5:53 PM — Sep 3 5:53 PM, Concord, Weather by CustomWeather, © 2015

Note: Actual official high and low records may vary slightly from our data, if they occured in-between our weather recording intervals... More about our weather records

Advertising

Concord weather history for previous 24 hours

 ConditionsComfort  
Time TempWeatherWind HumidityBarometerVisibility
5:53 PM
Thu, Sep 3
73 °FSunny.16 mph41%29.78 "Hg10 mi
4:53 PM75 °FSunny.14 mph39%29.78 "Hg10 mi
3:53 PM76 °FSunny.15 mph33%29.79 "Hg10 mi
2:53 PM76 °FSunny.15 mph32%29.82 "Hg10 mi
1:53 PM75 °FSunny.14 mph32%29.83 "Hg10 mi
12:53 PM75 °FSunny.15 mph34%29.84 "Hg10 mi
11:53 AM74 °FSunny.16 mph37%29.85 "Hg10 mi
10:53 AM72 °FSunny.15 mph40%29.87 "Hg10 mi
9:53 AM68 °FPassing clouds.14 mph57%29.87 "Hg10 mi
8:53 AM66 °FSunny.15 mph63%29.87 "Hg10 mi
7:53 AM63 °FSunny.14 mph73%29.86 "Hg10 mi
6:53 AM61 °FPassing clouds.12 mph78%29.85 "Hg10 mi
5:53 AM61 °FClear.8 mph78%29.83 "Hg10 mi
4:53 AM62 °FClear.14 mph75%29.83 "Hg10 mi
3:53 AM62 °FClear.12 mph75%29.83 "Hg10 mi
2:53 AM63 °FClear.7 mph70%29.83 "Hg10 mi
1:53 AM64 °FClear.13 mph70%29.83 "Hg10 mi
12:53 AM64 °FClear.13 mph70%29.84 "Hg10 mi
11:53 PM
Wed, Sep 2
64 °FClear.15 mph73%29.84 "Hg10 mi
10:53 PM64 °FClear.16 mph73%29.84 "Hg10 mi
9:53 PM65 °FClear.18 mph73%29.83 "Hg10 mi
8:53 PM66 °FClear.18 mph70%29.83 "Hg10 mi
7:53 PM67 °FPassing clouds.15 mph68%29.82 "Hg10 mi
Weather by CustomWeather, © 2015

See weather overviewHow to use our weather pages